Regional Weather Roundup
Issued by NWS

Home | Current Version | Previous Version | Graphics & Text | Print | Product List | Glossary On
Versions: 1 2 3 4 5 6 7 8 9 10 11 12 13 14 15 16 17 18 19 20 21 22 23 24 25 26 27 28 29 30 31 32 33 34 35 36 37 38 39 40 41 42 43 44 45 46 47 48 49 50
000
ASUS44 KMEG 271800
RWRTN
TENNESSEE HOURLY STATE WEATHER ROUNDUP
NATIONAL WEATHER SERVICE MEMPHIS TN
100 PM CDT MON JUL 27 2015

TNZ002-004-019-021-049-052-054-088>092-271900-
WEST TENNESSEE

CITY           SKY/WX    TMP DP  RH WIND       PRES   REMARKS
MEMPHIS INTL   PTSUNNY   96  74  48 VRB5      29.98S HX 107
NWS MEMPHIS      N/A     94 N/A N/A MISG        N/A
JACKSON        MOSUNNY   95  74  50 VRB6      29.98F HX 105
DYERSBURG        N/A    N/A N/A N/A MISG        N/A
PARIS          SUNNY     91  73  55 VRB3      29.99F HX 100
LEXINGTON      PTSUNNY   91  73  55 VRB3      29.99S HX 100
$$

TNZ008-025-027-028-033-062-065-066-271900-
NORTH MIDDLE TENNESSEE

CITY           SKY/WX    TMP DP  RH WIND       PRES   REMARKS
NASHVILLE      MOSUNNY   92  73  53 VRB5      29.99F HX 100
CLARKSVILLE    MOSUNNY   91  73  55 SE3       29.98S HX  99
COOKEVILLE     SUNNY     91  75  59 VRB3      30.02F HX 102
CROSSVILLE     PTSUNNY   87  67  51 NW7       30.08F HX  90
$$

TNZ061-075-076-078-094-096-097-271900-
SOUTH MIDDLE TENNESSEE

CITY           SKY/WX    TMP DP  RH WIND       PRES   REMARKS
FAYETTEVILLE     N/A     90  72  55 W6        30.03S HX  96
TULLAHOMA      SUNNY     90  70  51 CALM      30.04F HX  95
WINCHESTER     SUNNY     90  72  55 VRB5      30.03S HX  96
MCMINNVILLE    SUNNY     91  73  55 CALM      30.03F HX 100
SHELBYVILLE    SUNNY     91  75  59 CALM        N/A  HX 102
$$

TNZ017-018-042-046-047-271900-
NORTHEAST TENNESSEE

CITY           SKY/WX    TMP DP  RH WIND       PRES   REMARKS
TRI CITIES     PTSUNNY   85  70  60 SW6       30.04F
ELIZABETHTON   PTCLDY    84  70  61 NW5       30.05F
$$

TNZ012-013-036-069-073-074-271900-
CENTRAL EAST TENNESSEE

CITY           SKY/WX    TMP DP  RH WIND       PRES   REMARKS
KNOXVILLE      PTSUNNY   88  70  55 VRB3      30.01F HX  93
OAK RIDGE      PTSUNNY   88  72  58 S6        30.02F HX  94
GATLINBURG       N/A     88  70  55 VRB5      30.01F HX  92
$$

TNZ083-085-099-271900-
SOUTHEAST TENNESSEE

CITY           SKY/WX    TMP DP  RH WIND       PRES   REMARKS
CHATTANOOGA    PTSUNNY   93  71  48 N8        29.99F HX 100
$$

SKY/WX REPORTED AS FAIR MEANS FEW OR NO CLOUDS BELOW
12 THOUSAND FEET.




USA.gov is the U.S. government's official web portal to all federal, state and local government web resources and services.